Location: M?digepalle
(16.1753°N, 80.3496°E)
Time: 08:49:57
(UTC+00:00)

Cosmos 2278 - Pass Details

Date: 29 October 2020
Orbit: 841 x 851 km, 71.1° (Epoch: 27 November)

Event Time Altitude Azimuth Distance (km) Brightness Sun altitude
Rises 12:48:05 0° 195° (SSW) 3,402 7.2 -9.8°
Reaches altitude 10° 12:50:32 10° 195° (SSW) 2,466 6.5 -10.4°
Maximum altitude 12:56:12 87° 109° (ESE) 851 3.7 -11.7°
Drops below altitude 10° 13:01:52 10° 17° (NNE) 2,464 5.9 -13.1°
Sets 13:04:19 0° 17° (NNE) 3,399 6.6 -13.7°
